FW8705 Weather Reports


Display with metric or nautical units.
time (UTC)temp
F
wind
direction
speed
MPH
gust
MPH
rain 1hr
in
rain 24hr
in
rain mn
in
humidity
%
barometer
mb
20260504010053 51 0 0.0 0.0 0.00 0.00 0.00 65 1015.1
20260504004554 51 0 0.0 0.0 0.00 0.00 0.00 65 1015.0
20260504003054 52 0 0.0 0.0 0.00 0.00 0.00 65 1015.0
20260504001555 53 0 0.0 0.0 0.00 0.00 0.00 64 1015.2
20260504000136 53 0 0.0 0.0 0.00 0.00 0.00 62 1015.3
20260503234555 53 0 0.0 0.0 0.00 0.00 0.00 61 1015.2
20260503233058 53 0 0.0 0.0 0.00 0.00 0.00 60 1015.5
20260503231552 54 0 0.0 0.0 0.00 0.00 0.00 59 1015.5
20260503230139 55 0 0.0 0.0 0.00 0.00 0.00 58 1015.5
20260503224553 57 0 0.0 0.0 0.00 0.00 0.00 55 1015.5
20260503223055 58 0 0.0 0.0 0.00 0.00 0.00 53 1015.5
20260503221554 59 0 0.0 0.0 0.00 0.00 0.00 52 1015.5
20260503220052 59 0 0.0 0.0 0.00 0.00 0.00 50 1015.8
20260503214556 60 0 0.0 0.0 0.00 0.00 0.00 49 1015.8
20260503213054 61 0 0.0 0.0 0.00 0.00 0.00 48 1015.8
20260503211552 62 0 0.0 0.0 0.00 0.00 0.00 47 1015.8
20260503210051 62 0 0.0 2.0 0.00 0.00 0.00 46 1015.9
20260503204557 63 0 0.0 0.0 0.00 0.00 0.00 45 1015.9
20260503203052 63 0 0.0 5.0 0.00 0.00 0.00 44 1015.8
20260503201554 63 169 0.0 2.0 0.00 0.00 0.00 45 1015.8
20260503200101 63 0 0.0 2.0 0.00 0.00 0.00 45 1015.9
20260503194603 64 0 0.0 4.0 0.00 0.00 0.00 45 1015.7
20260503193056 64 0 0.0 1.0 0.00 0.00 0.00 47 1015.8
20260503191559 65 0 0.0 1.0 0.00 0.00 0.00 48 1015.8
20260503190059 66 0 0.0 0.0 0.00 0.00 0.00 47 1015.7
20260503184613 67 0 0.0 0.0 0.00 0.00 0.00 47 1015.4
20260503183101 69 0 0.0 0.0 0.00 0.00 0.00 47 1015.2
20260503181557 70 0 0.0 1.0 0.00 0.00 0.00 44 1015.1
20260503180056 71 0 0.0 3.0 0.00 0.00 0.00 43 1015.1
20260503174602 72 171 0.0 5.0 0.00 0.00 0.00 40 1015.1
20260503173100 74 0 0.0 7.0 0.00 0.00 0.00 38 1015.1
20260503171613 75 0 2.0 6.0 0.00 0.00 0.00 36 1015.1
20260503170107 75 167 0.0 7.0 0.00 0.00 0.00 36 1015.0
20260503090120 68 236 1.0 11.0 0.00 0.00 0.00 48 1019.1
20260503081555 66 193 2.0 7.0 0.00 0.00 0.00 51 1019.3
20260503080110 65 0 1.0 6.0 0.00 0.00 0.00 52 1019.2
20260503071608 62 0 0.0 1.0 0.00 0.00 0.00 56 1019.2
20260503054600 52 0 0.0 0.0 0.00 0.00 0.00 72 1019.0
20260503053052 50 0 0.0 0.0 0.00 0.00 0.00 77 1019.0
20260503051553 48 0 0.0 0.0 0.00 0.00 0.00 81 1019.0
20260503050053 44 0 0.0 0.0 0.00 0.00 0.00 86 1019.2
20260503044554 43 0 0.0 0.0 0.00 0.00 0.00 86 1019.2
20260503043054 42 0 0.0 0.0 0.00 0.00 0.00 87 1019.0
20260503041554 41 0 0.0 0.0 0.00 0.00 0.00 88 1018.9
20260503040054 41 0 0.0 0.0 0.00 0.00 0.00 87 1019.0
20260503034556 41 0 0.0 0.0 0.00 0.00 0.00 87 1018.9
20260503033052 41 0 0.0 0.0 0.00 0.00 0.00 88 1018.9
20260503031557 41 0 0.0 0.0 0.00 0.00 0.00 88 1018.8
20260503030059 41 0 0.0 0.0 0.00 0.00 0.00 86 1018.7
20260503024551 41 0 0.0 0.0 0.00 0.00 0.00 86 1018.7
20260503023105 41 0 0.0 0.0 0.00 0.00 0.00 85 1018.7
20260503021600 42 0 0.0 0.0 0.00 0.00 0.00 84 1018.8
20260503020059 42 0 0.0 0.0 0.00 0.00 0.00 83 1018.8
20260503014554 44 0 0.0 0.0 0.00 0.00 0.00 81 1018.9
20260503013058 45 0 0.0 0.0 0.00 0.00 0.00 80 1018.9
20260503011610 45 0 0.0 0.0 0.00 0.00 0.00 79 1018.9